Wind_Speed
33 34 34 34 35 35 35 34 34 35 35 35 34 33 32 31 31 31 32 34 34 34 33 33 32 33 33 33 33 33 33 32 33 34 34 35 37 38 39 40 41 41 41 40 40 39 39 38 39 40 40 41 41 40 39 38 38 38 39 39 38 37 36 35 36 36 35 35 35 35 35 36 36 36 36 36 36 36 37 38 39 39 38 37 37 37
34 34 34 34 34 34 35 34 33 33 35 35 35 33 32 32 32 32 33 33 33 32 31 30 30 30 30 30 30 31 32 33 34 35 36 37 38 39 40 40 41 40 40 40 39 39 39 39 39 39 39 39 39 39 39 39 39 39 39 39 38 37 37 36 36 35 35 35 35 35 35 35 34 33 33 33 33 33 35 36 37 37 37 37 36 36
33 33 33 33 32 32 33 34 34 34 35 35 34 32 31 31 32 32 32 32 31 29 28 27 27 27 28 29 30 32 33 34 34 35 36 37 39 40 40 41 40 40 39 39 39 39 39 39 39 38 38 39 39 39 39 39 39 39 39 39 38 37 36 36 35 34 34 34 35 34 33 31 30 30 29 29 29 30 31 33 34 35 35 36 35 35
30 31 32 32 32 31 32 33 34 35 35 34 32 30 30 30 31 31 31 30 29 27 26 25 26 27 29 30 31 32 32 33 34 36 37 38 40 40 41 41 40 40 39 39 38 38 38 38 38 38 39 39 40 40 40 40 39 39 39 38 37 36 36 35 34 34 34 35 34 33 31 30 29 29 28 28 28 29 30 31 32 33 34 34 34 34
28 29 30 31 30 30 32 33 34 35 35 32 30 30 29 29 30 30 29 28 26 25 25 26 27 28 29 30 31 32 33 34 36 37 38 40 40 41 41 40 40 39 38 38 37 37 37 37 37 38 39 40 41 40 40 39 38 38 38 37 36 36 35 34 34 34 34 35 34 33 31 30 30 29 29 28 28 28 29 30 31 32 32 32 32 32
27 28 29 29 29 30 32 33 35 35 33 31 29 28 28 28 28 27 26 25 25 25 26 26 27 29 30 31 32 34 35 36 37 38 39 40 40 40 39 38 38 37 36 36 35 35 35 36 37 39 40 41 40 40 39 38 38 37 37 36 36 35 35 34 34 34 35 35 34 33 32 31 30 29 28 28 28 28 29 30 31 31 31 31 31 30
29 29 29 29 30 31 32 32 33 32 28 26 26 26 27 27 27 26 25 26 26 26 27 28 29 30 32 33 34 35 36 37 38 38 38 38 38 37 36 35 34 34 33 33 34 34 35 37 38 40 41 41 40 40 39 38 38 37 37 36 35 35 35 35 35 35 35 34 33 32 31 30 29 28 28 27 26 27 28 29 30 31 31 31 30 30
29 31 30 30 30 31 31 31 30 27 24 23 24 25 25 24 25 26 26 26 25 25 27 29 31 33 34 34 35 35 35 36 36 36 36 35 34 34 32 31 30 30 31 32 33 34 36 38 39 40 41 41 40 40 39 39 38 37 37 36 36 36 36 35 35 35 35 34 32 31 30 29 29 28 28 27 27 27 27 28 30 31 31 30 30 29
28 30 31 30 28 28 28 29 27 25 24 24 24 23 22 21 23 25 26 26 26 27 29 31 33 35 35 34 34 34 34 34 34 34 34 33 32 30 29 29 30 30 31 32 33 35 37 39 40 41 41 40 40 39 38 38 37 37 36 36 35 35 35 35 35 35 34 32 31 30 29 29 28 28 28 28 28 28 28 28 30 31 30 30 29 28
30 29 28 27 25 23 22 24 25 24 24 25 24 23 21 21 22 24 26 28 29 30 31 32 33 34 34 34 33 32 32 33 33 33 33 31 30 29 28 29 30 30 31 32 34 36 38 39 40 40 40 40 39 38 38 37 36 36 35 35 34 34 34 34 34 33 32 31 30 29 28 28 28 27 28 28 29 29 29 29 30 30 30 29 27 26
27 25 23 22 22 21 20 20 21 22 22 23 23 22 22 22 23 24 24 27 30 33 33 33 32 32 32 32 32 32 32 33 32 31 30 29 28 28 28 28 28 29 31 33 35 37 38 39 39 39 39 39 38 37 36 36 35 35 34 34 33 33 33 33 32 32 31 30 29 28 28 28 28 28 29 29 29 29 29 30 30 30 28 27 26 25
20 19 18 19 20 21 20 19 19 19 20 20 21 22 25 26 26 26 25 26 29 32 32 32 31 30 30 31 31 32 32 31 29 27 27 26 25 25 25 26 28 29 31 33 35 36 37 37 38 38 37 37 36 36 35 34 34 33 33 33 33 32 32 32 31 31 30 29 28 28 29 29 29 29 29 29 29 28 28 28 29 29 28 27 26 26
15 16 18 20 21 21 21 21 22 23 24 24 22 21 23 28 29 29 28 28 29 30 30 30 30 31 31 31 31 31 30 27 25 24 24 24 24 24 25 26 28 30 32 34 34 35 35 35 36 36 35 35 35 34 33 33 32 32 32 32 32 32 32 31 29 28 27 27 28 29 30 30 30 30 29 28 28 28 28 28 29 30 29 28 28 28
15 18 20 20 21 22 24 25 25 25 26 27 26 26 27 29 30 30 29 28 29 29 29 29 30 31 32 31 30 27 24 21 20 21 23 25 26 27 27 28 30 32 33 33 34 34 34 33 33 33 34 34 33 33 32 32 32 32 32 32 32 31 30 28 26 26 27 28 30 31 31 31 31 30 29 28 27 27 28 29 30 30 30 29 29 28
18 18 15 14 17 23 26 27 27 27 28 29 29 29 30 30 29 28 26 26 27 29 29 29 30 31 31 28 23 19 17 18 21 24 26 29 30 29 29 29 31 32 32 32 32 33 33 32 31 32 33 33 34 33 33 32 32 33 32 32 32 30 29 28 27 28 29 31 32 32 31 31 30 30 29 29 28 28 29 29 30 31 31 30 29 29
20 18 13 12 17 24 28 29 29 28 29 30 29 29 28 27 27 27 26 25 26 27 25 23 22 23 23 21 17 13 15 20 23 26 29 31 32 32 29 29 30 31 32 31 31 31 32 31 31 31 32 33 34 33 33 33 33 33 32 31 31 30 29 29 30 31 32 32 32 32 30 30 30 30 31 31 31 31 31 31 31 32 31 31 30 29
21 20 19 17 20 26 31 31 30 29 29 29 28 28 27 27 27 27 27 26 25 23 21 14 10 9 9 14 15 15 19 22 25 27 30 32 33 32 29 28 29 30 31 31 30 31 31 30 30 30 31 32 33 33 33 33 32 31 31 30 30 30 30 31 32 33 33 33 32 31 30 29 30 31 32 32 32 32 31 31 31 31 32 31 30 30
22 23 23 22 23 27 30 30 29 28 28 28 28 28 28 29 29 29 28 27 24 20 17 12 8 6 5 5 13 22 23 25 26 28 30 31 32 31 29 27 28 29 30 30 30 31 30 29 29 29 31 32 33 33 33 32 31 30 29 30 31 32 33 34 34 34 34 33 32 30 29 30 31 32 33 33 32 31 31 30 30 30 30 30 29 29
24 26 26 25 26 28 29 28 27 27 27 27 28 28 28 29 29 29 28 26 23 19 15 10 7 7 8 12 21 28 27 26 27 28 28 28 30 30 28 27 27 29 30 30 31 30 30 29 30 31 32 33 33 32 30 29 28 28 30 32 33 34 35 35 35 35 34 33 31 29 30 31 33 33 33 33 32 31 30 30 30 29 28 27 27 27
27 28 28 27 27 27 27 28 28 28 28 29 29 29 28 28 28 27 25 22 20 17 15 13 13 15 19 23 28 29 28 27 27 27 26 27 29 29 28 27 27 28 29 30 28 27 27 27 28 29 30 29 29 28 27 27 29 31 34 35 36 36 36 36 36 35 34 31 30 30 31 33 34 33 33 32 31 31 30 28 27 26 26 26 26 27
28 29 29 29 27 26 26 27 29 30 30 30 29 27 25 24 22 21 19 17 17 18 21 19 20 23 26 26 27 28 28 28 26 25 24 24 26 27 27 26 25 25 25 24 23 23 23 24 25 25 26 25 24 25 28 30 33 36 37 38 38 37 37 37 36 34 32 29 29 31 33 34 34 33 33 32 31 29 28 27 26 25 25 26 27 27
28 29 30 30 28 27 27 28 29 29 28 27 25 22 20 19 18 18 20 21 22 24 24 23 24 26 27 27 28 29 28 27 26 25 23 16 19 26 27 24 22 21 20 20 21 22 23 23 24 24 25 26 28 30 33 35 37 38 38 38 38 37 37 36 35 33 30 29 30 33 34 35 34 34 33 32 31 30 28 27 27 27 27 27 27 27
29 29 29 28 27 26 26 26 26 26 26 25 25 24 22 22 23 26 28 27 26 26 27 27 28 28 27 27 27 27 27 26 25 25 22 13 15 22 25 21 19 19 19 22 24 25 24 23 23 24 25 28 31 33 35 36 37 37 37 37 37 37 36 34 32 29 29 31 33 35 35 35 34 34 33 33 32 30 29 29 28 28 27 27 27 27
27 27 26 25 24 25 26 28 29 30 30 30 30 30 30 30 29 29 29 27 27 27 27 28 28 27 26 26 26 25 25 24 24 23 19 12 14 20 23 21 20 21 24 26 26 25 24 25 26 27 28 29 31 33 34 35 36 36 37 36 36 34 32 30 28 29 31 34 35 35 35 34 34 33 33 33 32 31 30 30 29 29 28 28 28 28
25 24 24 24 26 29 31 32 33 34 33 33 32 31 31 30 29 28 27 26 26 27 27 26 22 20 22 24 24 24 24 24 24 22 19 14 16 21 24 24 23 24 26 27 26 25 25 27 28 28 28 29 30 32 34 35 35 36 35 34 32 30 28 27 29 31 33 35 36 35 35 34 33 33 33 32 32 31 31 30 30 29 29 29 29 29
24 24 26 28 30 32 34 34 34 34 33 32 31 30 29 28 28 27 26 25 25 24 23 18 13 13 18 20 21 21 23 22 22 21 19 16 16 19 24 25 23 23 24 26 26 26 26 27 28 28 28 28 30 32 33 34 34 33 32 30 28 27 27 28 31 34 35 36 36 35 34 34 33 33 32 32 32 31 31 31 30 30 30 30 30 30
23 26 29 31 32 33 33 33 32 32 32 32 31 30 29 28 27 25 23 23 23 22 18 11 9 11 12 14 16 18 21 21 20 20 20 19 17 16 20 23 23 22 24 26 27 27 27 27 27 27 27 28 30 31 32 31 30 28 27 26 25 26 29 31 33 35 35 35 35 34 34 33 32 32 32 32 31 31 31 31 31 31 31 31 30 30
25 28 30 31 32 32 32 32 31 31 31 31 31 30 29 28 25 22 20 22 23 21 17 12 10 10 8 7 12 19 22 22 22 22 22 20 14 12 19 23 24 23 24 26 27 28 26 25 25 26 27 27 28 29 29 26 24 24 24 24 26 29 32 33 34 34 34 33 33 33 32 32 32 31 31 31 31 31 31 31 31 31 31 30 29 28
29 30 31 31 31 31 31 31 31 31 30 30 30 29 28 26 24 22 22 24 23 20 16 12 11 10 9 10 15 21 22 23 23 23 22 19 14 14 21 23 24 24 23 22 23 24 24 23 23 23 24 26 26 26 25 23 22 22 23 25 28 31 31 31 31 31 31 31 31 31 31 31 31 32 32 32 32 32 32 32 32 31 30 29 27 26
31 31 31 31 30 30 30 30 30 29 29 29 28 27 26 25 23 23 25 25 23 20 17 14 13 12 10 12 13 13 15 20 23 23 22 16 12 15 22 22 22 23 22 16 12 12 15 18 21 23 24 25 25 25 23 22 22 22 24 26 27 28 27 27 27 27 28 29 30 31 31 32 32 32 33 33 33 33 33 33 32 30 29 27 27 26
31 30 30 30 30 30 29 29 28 28 27 27 26 25 24 23 22 22 23 23 22 20 19 17 17 16 14 9 6 5 6 18 24 24 23 18 15 16 21 20 21 22 22 16 8 4 7 10 18 24 25 25 25 24 23 22 22 23 24 25 25 24 24 24 24 26 28 29 30 31 31 32 32 33 33 33 33 33 33 33 31 30 28 27 26 26
30 30 29 29 29 29 28 27 27 26 26 25 24 23 23 23 22 22 22 22 21 21 21 20 20 19 18 12 8 7 8 20 27 27 25 20 19 20 21 19 19 21 23 21 14 7 6 5 13 24 26 25 24 23 23 22 22 23 24 23 22 21 22 23 25 27 29 30 30 30 31 31 32 32 32 33 33 33 32 32 31 30 29 27 26 26
29 29 29 29 28 27 27 26 26 25 25 24 23 23 23 23 23 22 22 22 22 22 22 21 20 20 19 17 15 16 19 25 28 28 27 22 19 20 21 20 20 21 23 23 21 15 11 8 12 20 24 24 23 22 22 22 21 21 20 19 19 21 23 25 26 27 28 28 28 28 29 29 30 31 31 31 31 31 31 31 30 29 28 27 26 25
28 28 28 27 27 26 26 25 25 24 24 23 23 23 23 23 23 23 23 22 22 23 23 22 21 20 18 17 16 18 23 27 28 28 27 24 20 19 22 21 20 20 20 19 19 19 16 15 14 14 15 20 22 22 21 20 19 18 18 18 20 22 25 26 26 26 26 26 27 28 28 29 29 30 30 30 29 29 28 27 27 27 27 26 25 24
27 27 26 26 26 25 25 25 24 24 23 23 23 23 23 23 23 24 23 23 24 24 24 24 24 23 21 18 15 16 22 27 29 30 28 26 23 21 21 20 20 20 17 15 14 12 10 13 15 13 9 12 18 21 20 17 16 17 19 21 22 24 25 26 26 26 26 26 27 27 28 29 29 29 29 28 27 26 26 25 25 25 26 26 26 25
25 25 25 25 24 24 24 24 24 24 23 23 23 24 24 24 24 25 25 25 25 26 26 26 26 26 25 24 21 21 24 29 31 31 30 28 26 23 21 20 22 22 18 16 13 9 8 9 12 14 12 9 10 14 17 17 18 19 21 22 23 24 25 26 26 26 26 25 26 26 28 28 29 29 28 27 26 26 25 25 25 25 25 26 26 26
23 23 24 24 24 24 24 24 24 24 24 24 24 24 25 25 25 26 26 26 27 27 27 27 27 27 27 26 26 27 29 31 32 33 33 32 30 27 23 23 24 24 20 16 14 12 10 9 9 10 9 8 6 8 14 20 23 23 23 22 23 24 26 27 27 26 25 24 25 26 27 28 28 28 27 26 26 25 24 23 23 22 22 23 24 26
22 22 23 24 24 24 24 24 24 24 24 24 25 25 26 26 26 26 26 26 27 27 27 27 27 27 28 29 30 31 33 34 35 36 37 35 33 30 25 23 24 25 22 20 18 14 9 8 9 9 8 7 9 14 19 21 22 22 23 23 23 23 25 26 26 25 24 24 25 26 27 28 27 26 26 25 24 23 23 22 21 20 19 20 21 23
21 22 23 24 24 24 24 24 24 25 25 25 26 26 27 26 26 26 25 25 25 26 26 26 26 27 29 31 32 32 33 33 34 35 35 34 32 30 27 25 24 25 24 21 19 15 11 8 8 8 9 8 11 16 20 20 19 20 22 24 24 24 24 24 24 24 24 25 25 25 26 27 26 25 23 22 22 21 20 21 20 18 17 18 19 20
22 22 23 24 24 24 24 25 25 26 26 26 26 26 26 25 25 25 25 24 24 25 25 26 26 27 28 29 29 30 31 32 32 32 32 32 32 30 28 26 25 23 21 18 15 14 13 12 12 12 11 9 9 11 14 17 18 19 21 18 18 21 24 25 25 25 25 25 24 24 24 25 24 22 21 21 20 19 19 19 18 17 16 15 16 16
22 23 24 25 25 25 25 26 26 26 26 26 26 26 25 24 24 25 25 25 25 25 25 25 25 25 26 26 27 28 29 29 30 30 30 30 29 29 28 27 25 22 18 16 15 16 17 17 16 15 15 13 12 12 13 16 18 20 20 14 15 21 26 26 25 24 24 24 24 23 23 22 22 21 21 20 20 19 18 17 16 15 14 12 12 12
23 23 24 25 26 26 26 26 26 26 26 25 25 24 24 24 24 24 24 24 25 25 25 25 24 24 25 26 26 26 27 27 27 27 26 25 25 26 27 27 24 20 16 16 18 20 20 18 16 15 14 14 12 10 10 15 19 19 18 17 20 23 24 24 24 23 22 22 23 23 22 20 20 20 20 20 19 17 15 14 13 13 12 12 12 11
23 24 25 25 26 26 27 26 26 25 25 24 24 24 24 24 24 24 24 24 24 25 25 24 24 23 22 23 24 25 26 26 25 23 22 21 22 24 25 24 22 19 19 18 19 20 19 18 16 15 15 15 13 11 9 13 17 18 19 19 19 15 9 15 22 24 23 23 23 23 22 21 20 20 20 19 17 16 15 14 14 14 14 14 14 13
24 25 25 26 26 26 26 25 25 24 24 24 24 24 25 25 24 24 23 23 24 24 24 24 23 22 20 20 22 24 24 23 21 20 18 19 20 21 22 21 20 20 21 19 18 17 17 16 15 15 15 15 14 12 11 12 14 17 18 20 19 15 10 13 19 23 23 23 23 22 22 22 21 20 19 17 16 16 17 17 19 19 19 18 17 16
24 25 25 26 26 25 25 25 25 24 24 24 23 24 25 24 24 23 23 23 23 24 23 23 21 18 16 18 20 22 22 21 19 17 17 19 20 20 19 19 19 21 21 20 18 16 15 14 14 15 15 14 14 13 12 12 14 16 18 20 19 18 18 20 21 21 20 20 21 22 22 22 21 18 16 15 15 17 19 20 21 21 22 22 20 19
24 25 25 25 25 25 25 25 25 24 24 24 24 24 24 24 24 23 23 23 22 22 23 22 20 16 12 14 18 20 19 18 16 16 17 19 20 20 19 18 19 20 20 20 19 18 16 15 15 14 14 13 12 12 13 14 13 14 16 19 18 17 18 18 19 19 18 18 19 20 22 21 19 15 13 13 14 16 20 21 22 22 22 23 23 22
24 25 25 25 25 25 25 25 25 24 24 24 24 24 24 24 24 23 23 22 21 21 21 21 19 17 15 16 17 16 15 14 14 16 18 19 19 18 17 18 20 20 20 19 18 17 16 16 15 15 12 9 8 8 12 14 14 14 15 16 17 16 15 16 17 19 19 18 19 20 21 19 16 13 13 13 13 16 19 22 23 24 23 23 24 24
24 25 25 25 25 25 25 25 24 24 24 24 24 25 25 24 23 22 22 22 22 21 20 20 18 17 17 17 17 16 14 13 14 16 18 19 18 17 17 19 20 20 20 18 17 15 13 11 10 11 11 10 6 6 9 14 15 15 15 15 15 14 13 15 17 19 19 19 19 20 19 17 14 12 11 11 12 14 17 20 23 25 25 24 25 25
24 24 24 24 24 24 24 24 24 24 24 24 25 25 25 25 23 22 21 21 21 20 19 18 17 16 15 15 16 16 15 14 15 16 18 18 17 16 17 19 20 20 19 19 17 15 12 8 5 5 7 10 10 9 11 14 15 16 16 15 14 13 13 14 16 18 19 19 20 20 19 17 15 13 11 9 8 10 15 18 22 24 25 25 26 27
24 24 24 24 24 24 24 24 24 24 24 24 24 25 25 25 24 22 22 21 20 19 18 18 17 15 13 13 14 14 14 14 14 16 17 16 15 15 16 18 18 18 17 16 15 15 13 9 6 5 5 7 9 11 12 14 15 16 15 14 13 13 12 13 15 17 18 18 19 19 19 18 17 16 13 10 8 9 13 16 19 22 25 25 26 28
24 24 24 24 24 24 24 24 24 24 24 24 24 24 23 23 22 22 22 20 19 19 19 18 17 15 13 13 13 14 15 14 14 14 15 15 14 14 15 16 16 15 12 9 8 9 8 6 5 5 6 8 10 11 13 14 14 13 12 12 13 13 13 13 15 17 17 17 17 18 19 18 18 17 15 12 8 7 9 12 16 20 23 25 25 27
Wind_Direction
299 300 301 301 300 299 299 298 298 298 297 297 297 297 296 295 295 294 295 296 296 297 297 297 296 295 294 293 292 292 291 291 291 291 291 292 292 293 293 294 294 295 295 295 294 294 295 296 298 298 299 299 299 298 298 298 298 297 296 294 294 293 293 292 292 292 292 294 295 295 294 293 292 290 289 288 287 287 288 288 287 283 277 270 265 263
298 298 299 299 298 297 298 298 298 297 297 296 296 296 295 295 294 294 295 295 296 297 298 298 298 297 296 295 294 293 292 292 291 291 291 291 292 292 293 293 294 294 294 294 294 295 295 296 297 297 298 298 299 299 299 298 298 297 296 296 295 294 293 292 292 293 294 295 295 293 291 290 288 287 287 287 287 288 287 287 285 282 277 271 266 263
298 298 298 298 297 296 296 298 299 298 296 295 295 294 293 293 293 293 294 295 297 298 299 299 299 298 296 294 293 292 291 291 290 290 290 291 292 293 293 294 294 294 294 294 294 294 295 295 295 296 297 298 299 299 298 297 296 296 295 295 294 293 292 292 293 294 295 295 294 291 290 288 288 288 288 289 290 290 289 287 285 281 277 271 267 263
295 296 297 298 297 295 295 297 299 299 297 295 293 292 292 291 291 292 293 295 298 299 299 299 298 296 294 293 291 291 290 290 290 290 291 292 293 294 294 295 295 294 294 294 294 293 293 293 294 295 297 298 299 298 297 296 295 294 293 293 292 291 291 292 293 295 296 295 293 292 290 289 289 289 289 290 291 291 291 289 286 283 279 273 268 264
292 293 296 297 296 295 296 298 299 298 296 293 290 289 289 289 289 291 293 296 298 299 299 298 297 296 294 294 293 291 291 291 291 292 293 294 294 295 295 294 294 294 294 293 293 292 292 292 294 296 297 298 298 297 296 295 294 293 292 291 290 290 291 292 294 295 295 293 292 290 289 287 287 288 289 290 290 291 291 291 289 286 282 276 271 266
291 293 295 295 295 295 297 298 298 297 294 291 289 287 287 287 289 292 295 298 299 299 299 299 299 298 297 296 295 294 294 294 294 294 295 295 294 294 294 293 293 293 293 293 293 292 293 294 295 297 297 297 297 296 295 294 293 292 292 291 291 291 291 292 293 294 293 291 288 286 285 286 287 289 289 290 291 291 291 292 292 289 285 280 275 269
292 293 294 293 292 292 294 295 295 293 289 288 288 288 288 288 291 294 296 298 298 298 299 300 300 300 300 299 298 297 297 296 296 295 295 294 293 293 292 292 292 293 293 293 293 293 293 294 295 296 297 297 296 296 295 295 294 294 293 293 293 292 292 292 292 292 290 287 285 284 286 288 290 292 293 294 294 293 293 293 292 291 287 283 279 274
293 293 291 289 289 290 292 292 291 288 285 285 288 291 292 293 295 296 297 297 297 299 301 302 303 302 302 301 300 298 297 296 295 294 293 292 292 291 291 292 292 293 293 292 292 293 294 294 295 296 296 296 296 296 295 295 295 294 294 294 294 293 293 292 292 290 288 285 284 285 288 290 292 294 296 298 298 296 295 294 293 291 289 286 281 277
291 290 288 285 286 290 293 294 293 290 289 291 294 296 299 301 302 302 302 300 300 302 304 305 305 304 302 301 299 297 295 294 293 291 291 291 291 291 291 292 292 293 292 292 293 293 294 295 295 295 296 295 295 295 295 294 294 294 294 294 293 293 292 291 290 289 287 286 286 287 289 290 292 295 298 299 299 297 295 294 293 292 291 287 282 278
286 284 284 285 287 291 294 297 299 300 301 302 303 304 305 306 307 306 305 304 304 305 305 305 304 303 302 300 298 296 294 292 291 290 289 289 289 290 291 291 292 292 293 293 294 294 295 295 295 295 295 294 294 294 294 293 293 293 293 292 292 291 290 290 289 289 289 289 289 290 290 292 295 298 299 299 298 297 296 295 294 292 290 287 284 280
283 282 284 290 297 301 301 301 303 306 309 309 309 307 306 306 306 307 307 306 306 306 305 304 303 301 300 299 297 295 293 292 290 289 288 287 287 288 290 291 291 292 293 294 295 295 295 294 294 294 293 293 293 292 292 292 292 292 291 290 290 290 290 290 290 290 290 291 291 291 292 294 297 299 298 297 297 296 296 295 293 291 290 289 288 287
285 290 297 305 310 312 310 308 308 309 311 311 308 305 303 303 304 305 305 304 305 305 305 303 301 299 297 296 295 293 292 290 288 288 288 288 288 290 292 294 294 295 295 295 295 294 293 293 293 293 292 292 291 291 291 291 291 290 290 289 289 289 289 289 289 289 289 290 291 292 294 296 297 297 296 296 295 295 295 294 293 292 292 293 294 293
299 309 314 314 314 313 313 312 312 311 309 307 304 302 301 302 303 303 302 300 300 301 302 301 300 298 296 294 292 290 288 286 286 287 289 291 293 295 298 299 299 298 297 296 295 293 292 292 292 292 291 290 290 290 290 290 290 289 289 288 288 288 287 287 287 287 288 291 293 294 296 296 296 295 295 294 294 294 294 294 293 293 293 294 295 295
318 318 315 312 311 311 312 312 311 309 306 304 302 301 301 302 302 302 300 298 298 299 299 298 297 297 296 293 290 286 285 286 289 293 295 296 297 300 302 301 299 297 295 294 292 291 290 290 290 290 289 289 289 289 289 289 289 288 288 287 287 288 288 288 289 290 292 294 296 296 296 296 295 295 295 294 293 293 293 292 291 291 291 292 293 292
318 315 312 309 309 311 312 312 310 307 304 303 302 301 301 301 300 300 299 298 298 298 298 296 296 296 296 293 289 286 290 298 302 303 302 300 300 301 302 300 297 294 292 291 290 289 289 289 288 287 288 288 288 288 289 289 290 290 289 289 289 290 291 292 293 294 295 296 296 295 295 294 294 295 295 295 293 292 291 290 289 289 289 289 288 288
313 312 309 307 309 311 311 310 308 305 303 302 301 300 299 299 298 298 297 296 297 296 296 295 295 295 295 294 292 297 307 311 310 307 304 301 300 300 300 298 294 292 290 289 288 287 287 286 285 284 285 286 287 288 289 290 291 291 290 290 291 292 292 293 294 295 295 294 293 292 291 291 292 293 294 293 292 291 289 288 287 287 287 286 285 284
311 310 309 310 309 309 309 308 305 302 300 299 298 297 296 295 295 296 295 294 294 293 291 291 289 289 296 300 303 309 316 316 312 307 303 300 299 299 299 295 292 289 288 287 286 285 285 283 283 282 283 284 286 288 289 290 291 291 291 291 291 291 291 292 292 293 292 291 290 289 289 290 291 292 292 291 290 289 287 286 285 285 284 283 282 280
310 310 310 309 308 307 306 305 302 299 297 296 296 295 294 293 293 293 292 290 289 287 286 285 283 287 301 305 308 311 316 315 310 305 301 298 297 298 298 294 289 287 286 285 284 283 282 280 280 280 280 282 284 286 287 288 289 290 291 291 290 290 290 290 291 291 291 289 289 289 290 291 292 292 291 289 288 286 285 284 283 282 282 282 281 279
310 310 310 308 307 305 303 300 297 296 295 295 295 295 294 293 292 290 288 286 283 280 280 282 290 300 305 305 306 308 312 311 307 302 298 296 296 297 297 294 289 286 284 283 282 281 279 277 277 279 281 283 284 284 286 287 289 290 291 290 290 290 290 290 290 290 289 289 289 290 292 293 293 291 289 287 286 285 283 281 280 280 282 285 285 283
310 309 308 306 304 301 298 295 294 293 293 294 294 294 292 291 289 288 286 283 281 283 289 297 302 304 304 303 303 305 308 308 304 299 296 294 294 295 295 292 287 283 281 280 279 277 277 278 280 282 285 285 285 287 289 291 292 291 291 291 290 290 290 290 290 289 288 288 289 291 293 293 292 289 287 285 284 282 280 278 278 280 283 286 286 285
308 306 304 302 299 296 293 292 291 292 292 293 293 291 290 289 289 289 290 292 296 300 304 304 303 303 303 301 301 303 305 303 299 295 293 292 292 292 292 289 283 279 277 278 280 283 286 286 286 286 288 289 292 294 294 293 292 291 291 290 290 289 289 288 287 286 286 287 289 291 292 292 290 287 285 283 282 282 282 282 283 283 283 283 282 282
304 302 300 298 295 291 289 290 291 293 295 295 294 293 294 297 300 304 306 307 306 305 304 302 300 300 300 298 297 298 299 296 292 289 290 288 289 290 291 288 283 280 280 286 292 296 295 292 290 290 292 294 295 295 293 292 291 290 289 288 288 287 286 285 284 284 286 288 290 291 291 290 288 286 285 284 284 285 286 286 284 283 281 280 279 278
300 297 296 295 294 292 293 295 298 301 303 303 302 302 303 304 304 304 304 304 303 302 301 300 299 298 296 294 293 293 292 289 285 283 285 283 286 290 293 292 291 290 292 297 300 300 297 294 292 292 293 293 292 291 290 289 289 288 287 287 286 286 284 284 284 286 288 290 290 290 289 288 287 286 286 286 287 287 287 285 283 282 281 279 278 276
298 296 296 297 299 302 304 305 307 307 307 305 303 302 301 300 299 299 299 299 300 300 300 299 298 296 294 293 292 291 289 288 285 282 280 279 283 289 294 299 300 299 298 299 299 298 296 294 293 292 291 290 289 288 288 287 287 287 287 286 286 285 284 284 286 288 289 289 289 289 288 287 287 286 286 287 287 286 285 284 282 281 280 279 277 275
299 300 302 305 307 308 307 306 305 304 304 303 302 301 301 301 300 299 299 299 299 300 299 298 297 295 295 294 293 292 291 290 286 282 279 280 286 291 297 301 301 298 296 297 297 297 295 294 293 292 290 287 285 285 285 285 285 285 285 285 284 284 284 286 288 289 289 289 288 288 288 287 286 286 285 285 285 284 283 282 281 281 279 278 277 275
302 305 308 309 308 307 306 304 304 303 303 303 303 304 304 303 302 301 300 300 300 301 300 296 292 292 294 294 293 292 293 293 288 283 279 283 289 294 297 299 297 294 295 296 297 297 295 294 293 292 289 285 283 282 282 283 283 284 283 283 283 284 286 287 288 288 288 288 288 288 287 286 285 284 284 284 283 283 282 281 281 280 279 278 277 274
307 309 309 308 307 307 306 306 306 305 305 304 303 303 303 303 302 302 301 301 302 301 298 292 287 290 292 292 292 293 295 295 292 288 285 286 289 292 294 296 296 296 296 296 297 296 294 293 292 290 287 284 281 281 281 281 281 281 281 282 283 285 287 287 288 288 288 287 287 286 285 285 284 283 283 282 282 282 281 281 281 280 279 278 276 273
311 310 309 308 308 307 307 306 306 305 304 303 302 301 301 301 301 301 300 301 301 299 295 291 290 291 291 289 294 296 297 296 294 292 291 290 288 289 293 297 297 297 296 296 296 295 293 290 288 287 285 283 282 282 282 280 279 280 281 283 285 287 287 287 287 287 287 286 286 285 285 284 284 283 283 283 282 282 281 281 280 280 278 277 274 271
312 311 309 308 307 307 306 305 304 303 302 300 299 298 298 298 298 298 298 299 298 295 292 290 290 290 291 293 296 297 296 295 295 296 298 295 292 290 294 296 297 296 296 296 296 295 293 290 288 286 286 286 287 287 285 283 282 282 283 284 285 287 287 287 286 286 286 286 286 286 286 285 285 285 285 284 283 283 282 281 280 279 277 274 271 268
312 311 309 308 307 306 305 304 302 301 299 298 297 296 296 296 295 293 294 295 294 291 291 292 292 293 294 295 296 295 293 296 298 301 303 300 294 292 295 295 295 295 297 298 298 295 294 294 293 292 290 291 292 291 289 286 285 284 285 285 286 286 286 287 287 288 288 289 289 289 288 288 288 287 286 285 284 282 281 280 278 277 275 272 268 265
311 310 309 308 307 306 305 304 302 300 299 297 296 295 296 295 293 291 291 292 291 289 289 291 292 293 293 294 293 290 292 298 300 303 303 299 293 292 294 294 294 295 296 297 297 295 296 297 298 298 297 296 294 292 290 288 287 286 287 287 288 288 289 291 292 293 294 293 292 291 290 289 288 287 286 284 283 282 280 278 277 274 272 268 264 261
309 308 308 307 307 306 305 304 302 300 299 297 296 295 296 295 294 292 291 290 289 288 289 290 290 290 290 287 286 287 291 296 298 300 301 297 292 292 294 293 293 294 295 294 293 292 297 297 301 301 300 297 295 293 291 290 289 288 289 290 290 291 295 296 298 298 297 296 294 293 291 289 288 287 286 284 283 282 280 278 275 272 268 264 260 257
307 307 307 306 305 305 304 303 301 300 299 298 297 297 297 297 296 295 293 291 289 288 288 289 289 289 288 286 285 285 288 292 295 298 299 297 294 293 294 293 293 294 296 294 292 290 288 288 296 298 298 297 295 294 294 293 291 290 292 293 295 297 300 301 300 299 298 296 295 293 292 290 289 288 287 285 284 282 280 278 274 270 266 261 257 255
305 305 305 305 305 304 304 303 302 301 301 300 300 300 299 299 298 297 295 293 290 289 289 288 288 289 289 288 287 287 289 291 294 297 299 297 294 292 294 294 294 295 295 295 293 291 289 288 290 294 296 297 297 297 297 295 294 295 298 301 301 301 302 302 301 299 297 296 295 294 293 292 292 290 289 287 285 283 281 278 274 270 264 260 257 254
305 304 304 305 305 305 305 305 304 304 303 303 302 302 302 301 300 299 297 294 293 291 290 288 287 287 287 288 288 289 290 292 295 297 298 296 293 292 293 293 294 295 294 293 292 292 287 287 290 292 295 299 300 300 299 299 300 304 306 306 304 302 301 300 299 298 297 296 295 294 293 293 292 291 290 288 286 284 282 279 276 271 266 261 257 254
304 304 305 306 307 307 307 307 307 306 306 305 305 304 304 302 301 300 298 296 295 293 291 289 287 286 285 285 285 286 288 292 294 296 295 294 292 291 292 291 292 292 290 290 289 287 283 284 291 296 298 298 300 302 304 305 308 309 308 306 304 302 300 299 297 296 295 294 293 292 292 292 291 290 289 288 287 285 284 281 278 274 269 264 258 253
303 304 306 308 308 309 309 309 308 308 308 307 307 306 305 303 302 301 299 297 295 294 293 290 288 286 285 283 283 283 285 288 290 291 291 291 290 289 289 289 289 289 287 286 286 288 288 290 296 299 300 297 299 306 309 310 310 309 307 306 304 302 300 299 298 296 294 292 291 292 292 292 291 290 290 290 290 289 288 285 282 279 274 268 263 257
304 306 308 309 310 310 310 309 309 308 308 307 307 306 305 303 301 300 299 297 295 294 293 293 290 289 288 286 284 284 284 285 287 288 289 289 289 287 286 286 287 286 284 283 285 289 294 298 304 306 304 303 303 305 307 308 309 309 308 307 305 302 299 299 299 298 295 293 293 293 293 293 292 291 292 293 293 292 292 291 290 287 282 277 272 267
307 308 309 310 311 310 310 309 308 308 307 306 306 305 304 302 301 300 299 297 296 295 294 292 291 290 290 289 288 287 286 286 287 288 289 289 288 287 286 286 286 286 286 285 287 292 299 305 309 310 309 306 304 304 305 306 307 309 310 310 308 305 303 303 302 300 298 295 294 294 295 296 295 295 294 295 295 294 292 291 292 291 287 285 285 282
309 309 310 310 310 309 308 307 307 307 307 306 305 304 304 303 303 302 302 300 299 298 296 295 293 291 291 290 289 289 288 288 288 289 289 289 289 288 287 287 287 287 288 290 294 301 308 308 305 302 300 299 300 302 304 305 307 310 312 312 310 309 308 306 304 302 300 298 297 296 297 299 300 299 299 299 298 295 293 292 292 293 291 289 291 295
310 310 310 310 310 309 308 307 307 306 306 306 306 306 305 305 305 305 305 305 304 303 302 300 298 295 293 292 291 291 291 290 290 290 290 290 291 291 290 289 288 288 292 299 306 309 308 304 299 296 295 295 296 299 301 304 306 309 309 307 305 305 306 306 304 304 304 304 303 302 302 303 305 305 306 306 305 303 303 301 301 303 308 310 311 317
311 310 309 309 309 309 308 308 307 307 307 307 307 306 306 306 306 306 306 306 306 306 306 304 302 300 298 297 296 296 296 295 294 293 293 294 296 297 295 293 292 295 305 311 311 307 303 299 295 293 293 296 298 300 301 303 305 306 305 303 304 306 307 307 308 309 310 309 309 309 309 309 309 310 312 312 314 317 321 323 324 328 333 341 348 354
310 309 308 308 308 308 308 308 309 309 309 309 308 306 306 306 306 306 306 305 305 306 305 304 302 300 298 298 300 302 302 300 298 297 296 299 303 304 303 300 302 307 314 313 308 303 301 298 294 292 293 295 297 297 296 300 303 304 303 303 305 306 308 309 311 313 313 312 312 313 314 315 315 317 318 321 326 333 342 349 356 0 2 4 8 12
309 309 308 308 309 309 309 310 310 310 310 309 307 306 307 307 306 306 305 304 304 304 303 303 301 299 297 298 301 304 305 303 302 301 302 308 312 314 311 309 310 313 313 308 303 300 300 299 296 293 293 294 293 293 294 297 300 303 304 305 305 302 296 300 305 309 311 312 314 317 320 322 324 325 328 334 343 352 0 6 11 15 17 20 20 21
309 310 310 310 310 310 310 310 310 310 309 308 307 306 307 307 307 306 305 304 303 302 302 302 302 301 301 302 304 305 306 305 305 307 311 318 320 319 316 314 315 315 312 306 300 296 294 294 294 294 294 293 290 289 290 294 298 302 305 307 306 302 297 298 300 303 306 310 314 320 326 330 331 332 334 342 353 3 10 13 15 17 20 22 24 24
311 311 311 311 311 311 310 310 310 311 310 309 307 307 308 308 308 307 305 303 302 301 301 301 301 301 302 303 304 305 306 306 309 315 321 323 323 321 320 320 321 319 315 309 303 297 290 286 286 288 291 292 290 288 289 293 297 300 303 308 308 307 305 304 305 306 309 312 317 325 333 338 340 340 342 349 359 9 16 19 19 19 20 22 23 24
313 312 312 311 311 310 310 311 311 311 311 310 309 308 309 309 308 307 306 304 302 301 302 303 302 299 298 300 302 303 304 308 315 322 326 325 323 324 326 328 328 325 320 315 309 303 295 288 283 280 281 283 286 292 295 297 299 300 302 306 308 309 308 309 312 316 321 323 326 332 340 344 345 346 352 360 8 15 19 21 22 23 23 24 24 25
313 312 311 311 310 310 310 311 312 312 311 311 310 309 310 310 309 307 306 305 304 303 302 304 302 300 299 300 300 301 305 311 320 325 326 325 325 328 333 335 334 332 330 328 325 320 313 304 292 283 277 271 275 293 300 303 303 303 304 306 307 309 309 311 318 326 332 335 339 344 348 349 348 347 351 3 15 21 22 21 22 24 26 26 27 27
312 311 310 310 310 310 310 311 312 312 311 310 310 310 311 311 310 308 306 306 305 304 302 302 301 301 301 302 302 304 311 319 325 327 325 324 327 333 339 340 339 338 337 339 342 345 348 345 329 303 292 280 284 297 303 306 308 308 309 309 309 309 311 316 324 332 338 343 350 357 2 2 0 359 1 10 20 24 24 22 21 22 25 28 30 31
311 310 310 310 310 309 309 310 311 311 309 309 310 310 311 312 311 310 308 306 305 304 303 301 300 300 301 303 307 312 321 327 329 327 325 325 331 339 343 343 343 342 342 345 348 352 356 355 350 338 328 313 309 308 308 309 311 314 316 317 318 319 319 322 330 337 343 348 356 5 11 13 14 15 18 23 28 29 28 25 21 20 23 28 32 34
312 311 310 310 310 309 309 310 310 309 308 308 309 310 310 311 311 311 311 310 308 305 304 302 300 300 303 308 314 321 327 330 329 326 324 327 336 344 345 344 343 343 344 346 348 347 345 344 343 341 343 346 342 333 323 315 315 319 322 326 331 333 332 332 336 342 348 355 4 12 17 19 19 20 23 28 30 30 30 28 22 20 23 29 33 35
Height
698 695 694 694 692 689 685 685 685 682 679 677 677 675 674 673 672 671 670 669 667 665 663 661 660 658 657 655 654 653 651 650 649 647 645 644 642 641 639 638 636 634 633 631 630 628 627 626 624 623 622 620 619 617 615 614 613 612 610 609 608 606 605 605 604 603 602 600 599 598 597 596 595 594 593 592 591 589 588 587 586 584 584 583 582 582
697 694 693 692 690 687 683 682 682 681 678 675 674 673 672 670 669 668 667 666 664 663 661 659 657 656 655 654 652 651 650 648 647 645 643 641 640 638 636 635 633 632 630 629 627 626 624 623 622 621 619 618 616 614 613 612 610 609 608 606 605 604 603 602 601 600 599 598 597 596 595 594 593 592 591 589 588 587 586 584 583 582 580 579 579 579
695 692 690 689 688 686 682 680 679 679 677 674 672 671 670 668 667 666 664 662 661 660 659 657 655 654 653 651 650 649 647 645 644 642 640 639 637 635 633 632 630 629 627 626 624 623 622 621 619 618 616 615 614 612 611 609 608 606 605 604 602 601 600 599 598 597 596 595 594 594 592 591 590 589 588 587 586 585 584 582 581 579 578 577 576 575
695 691 688 687 685 684 681 679 677 676 675 673 670 669 668 667 665 663 661 660 658 657 656 655 653 652 650 648 647 645 644 643 641 639 637 635 634 632 630 629 627 626 624 623 622 621 619 618 617 615 614 612 611 609 608 607 605 604 603 601 600 599 598 596 595 594 594 593 591 590 589 589 588 587 585 584 583 582 581 580 578 577 576 574 573 573
692 690 687 685 683 681 679 678 676 674 672 670 669 667 665 665 663 660 659 658 656 655 653 652 651 650 648 646 644 643 641 639 638 636 634 633 631 629 628 626 624 623 622 620 619 618 617 615 614 613 611 610 609 607 605 604 603 601 600 599 597 596 595 594 593 592 591 590 589 588 587 586 585 584 583 582 580 579 579 577 576 574 573 572 570 569
690 689 686 685 682 680 677 676 674 673 670 668 666 665 664 662 660 658 656 655 654 652 651 650 648 647 646 644 642 640 639 637 635 634 632 630 628 626 625 623 622 621 619 618 617 616 614 613 612 610 609 607 606 604 603 601 600 599 597 596 594 593 592 591 590 589 588 587 586 585 584 583 582 581 580 579 578 577 576 574 574 572 571 569 568 567
687 686 685 683 680 678 676 674 672 670 669 666 664 662 661 659 658 656 655 654 652 650 649 647 646 645 644 642 640 639 637 634 633 631 629 627 625 624 622 621 619 618 617 616 615 614 612 611 609 607 606 604 603 601 599 598 597 595 594 593 592 590 589 588 587 586 586 585 584 582 581 580 579 578 577 576 575 574 573 572 571 569 568 567 565 564
685 683 683 681 678 675 673 672 670 669 667 665 662 660 658 656 655 655 653 652 650 649 647 645 643 642 641 640 638 637 634 633 630 628 626 624 623 621 620 619 617 616 615 614 613 611 609 608 606 604 603 601 600 598 597 595 594 593 591 590 589 588 587 585 584 584 583 581 580 579 578 577 576 575 574 573 572 572 571 570 569 568 566 564 563 562
685 681 679 678 676 673 670 668 668 668 667 665 663 660 658 655 654 652 651 650 648 647 645 643 641 639 638 637 636 634 632 630 628 626 624 622 620 619 618 617 615 614 613 611 610 609 607 605 603 602 600 598 597 595 594 593 591 590 589 588 586 585 584 583 582 581 579 578 577 576 575 574 573 572 571 570 570 569 568 568 566 565 564 562 561 559
683 680 677 675 674 673 670 667 666 666 667 665 664 661 659 656 654 651 649 647 645 645 644 643 640 637 635 634 633 632 630 628 625 623 622 620 619 617 616 615 613 612 610 609 608 606 604 603 601 599 597 595 594 593 591 590 589 588 586 585 584 583 581 580 579 578 576 575 574 573 572 571 570 569 569 568 567 566 565 564 564 563 562 560 559 557
679 677 676 674 672 671 670 668 666 665 665 664 663 661 660 658 655 651 647 644 643 642 642 641 639 637 634 632 630 629 627 624 622 620 619 618 617 615 614 613 611 610 608 607 605 604 602 600 598 596 594 593 591 590 589 588 586 585 584 583 581 580 579 577 576 575 574 572 571 570 569 568 568 567 566 565 564 563 562 562 561 560 559 558 557 555
677 676 675 673 671 670 668 667 665 664 663 662 660 658 656 655 654 652 648 644 641 640 639 638 636 635 633 631 628 626 624 622 619 618 616 615 614 613 612 610 609 607 606 604 603 601 599 597 595 593 591 590 588 587 586 585 584 582 581 580 579 577 576 575 574 572 571 570 569 568 567 566 565 564 564 563 562 561 560 559 559 558 557 555 554 553
677 676 675 673 671 670 668 666 664 662 662 661 659 656 653 652 651 650 648 644 641 639 638 635 633 631 630 629 627 624 621 619 618 616 614 613 612 611 610 609 606 605 603 601 599 597 596 594 592 590 589 587 585 584 583 582 581 579 578 577 576 574 573 572 571 569 569 568 566 565 564 564 563 562 561 560 559 559 558 557 557 556 555 554 552 551
677 676 675 673 671 669 667 665 664 662 660 659 658 655 653 651 650 648 646 643 640 638 636 634 630 628 626 625 624 622 620 618 616 614 613 611 610 610 609 607 605 603 601 599 597 594 593 591 589 587 585 584 582 581 580 579 578 577 575 574 573 571 570 569 568 567 566 565 564 563 562 561 560 559 558 557 557 556 555 555 554 554 553 551 550 549
678 676 674 671 669 667 666 665 663 661 659 658 656 655 652 650 648 647 645 641 638 635 634 631 628 625 623 622 621 620 619 618 615 613 610 608 608 609 608 606 603 600 599 597 594 592 590 589 587 585 583 581 579 578 577 576 575 574 572 571 569 568 567 566 565 564 564 563 561 560 559 558 557 556 555 554 554 554 553 552 552 551 550 549 548 547
677 675 673 670 667 666 665 664 663 660 658 656 655 654 651 649 646 645 643 639 636 634 632 629 625 621 619 619 619 619 619 617 614 612 609 606 605 606 607 605 601 598 595 594 592 590 588 586 584 583 581 579 577 576 575 574 572 571 569 568 567 566 564 564 563 562 561 560 559 558 557 556 555 554 553 552 552 551 550 550 549 548 547 547 546 545
676 674 672 669 666 664 663 663 662 660 658 655 654 652 650 647 645 643 640 638 635 633 630 627 624 619 616 615 617 618 618 617 614 611 608 604 602 603 604 603 599 595 592 591 589 587 585 584 582 580 579 577 575 574 572 571 570 569 567 566 565 564 563 561 560 559 558 557 556 555 554 553 552 551 550 550 549 548 548 547 546 545 544 544 543 542
675 673 670 668 666 664 663 662 660 659 656 654 651 649 647 645 643 641 639 636 634 631 628 625 623 619 617 614 614 616 618 617 614 610 606 602 600 600 601 600 597 593 590 588 586 584 583 581 580 578 576 574 573 571 570 569 567 566 565 564 563 561 560 559 558 556 555 554 553 552 551 550 549 549 548 547 546 545 544 544 543 542 542 541 540 539
673 671 670 668 665 663 662 660 659 657 655 652 649 647 644 642 640 639 636 634 632 629 627 624 621 619 618 615 614 615 617 616 614 609 605 600 597 597 598 597 594 590 587 585 583 581 580 578 577 576 574 572 571 569 568 566 565 564 562 561 559 558 557 556 555 554 552 551 550 549 548 547 547 546 545 544 543 542 542 541 540 539 539 538 537 536
671 670 669 667 665 662 660 658 657 655 653 650 648 645 643 640 638 636 634 631 629 627 625 623 621 619 618 616 614 614 615 615 613 608 603 599 595 594 594 594 591 587 584 581 580 579 577 576 574 573 572 570 569 567 565 564 563 561 559 558 556 555 554 553 552 550 549 547 546 546 545 545 544 543 542 541 540 539 538 537 537 536 535 535 534 533
670 668 667 666 665 662 658 655 654 653 651 649 647 644 641 638 635 633 632 630 628 626 625 623 621 619 618 616 614 613 614 614 611 607 602 597 593 591 591 590 588 584 581 579 578 577 576 574 573 571 570 568 567 565 564 562 560 558 556 555 553 552 551 550 549 547 546 545 544 544 543 542 541 540 539 538 537 536 535 534 534 533 533 532 532 531
669 666 665 664 663 661 657 654 652 651 650 648 645 643 639 637 634 632 631 629 628 626 624 622 620 618 617 615 614 612 612 612 609 606 601 595 590 587 588 587 585 582 579 577 576 575 574 573 571 569 568 567 565 564 562 559 558 555 554 552 550 549 548 547 545 544 543 542 541 541 540 539 537 536 535 534 533 532 532 531 531 530 530 529 529 529
668 665 663 662 661 659 656 654 651 650 649 647 645 643 640 638 635 633 631 629 627 624 622 620 618 617 616 614 612 610 609 609 607 604 600 594 588 585 585 585 583 580 577 576 575 574 572 571 569 568 566 565 563 561 559 557 554 552 551 549 548 546 545 544 542 541 540 539 539 538 537 535 534 533 532 530 530 529 529 528 528 527 527 526 526 525
666 664 662 660 659 657 655 653 651 649 648 646 644 642 639 638 635 633 630 628 626 624 621 619 616 614 613 611 610 608 607 606 604 602 599 593 588 584 584 583 581 579 576 574 574 572 570 568 567 566 564 563 561 559 556 554 552 550 548 546 545 544 542 541 540 539 538 537 536 534 533 532 531 530 529 528 527 526 526 525 524 524 524 523 523 522
664 662 660 659 658 656 655 653 650 648 646 644 642 639 637 635 633 631 629 627 624 622 620 617 614 612 610 609 607 605 604 603 602 600 596 591 586 583 582 582 581 578 574 572 571 570 569 566 564 563 561 559 557 555 553 551 549 547 545 544 543 541 540 539 538 537 536 534 533 531 530 529 528 527 526 525 524 523 523 522 521 521 520 520 519 519
663 661 660 658 657 655 653 651 649 647 645 643 640 638 635 633 631 629 626 625 623 621 619 616 613 610 608 606 604 602 601 600 599 597 595 590 585 582 581 581 580 576 572 570 569 568 566 564 561 559 558 556 554 551 549 548 546 544 543 542 540 539 538 537 536 534 533 531 530 528 527 526 524 524 523 522 521 520 519 519 518 517 517 516 516 515
662 660 659 657 655 653 650 649 647 645 643 641 639 637 635 632 629 627 624 623 622 620 618 614 611 608 605 604 602 600 599 597 596 595 593 590 586 582 579 579 578 575 571 568 567 566 564 561 559 556 554 552 550 548 546 544 543 542 541 540 539 538 536 535 533 531 530 528 527 525 524 523 522 520 519 519 518 517 516 515 515 514 514 513 512 511
660 658 656 654 652 650 648 646 645 643 641 639 637 635 634 631 629 626 623 622 621 619 617 614 610 607 604 602 600 598 597 595 594 592 591 589 585 581 579 577 576 574 571 567 564 562 561 559 556 554 551 549 547 544 543 542 541 540 539 538 536 535 534 532 530 529 527 525 524 522 521 519 519 517 516 515 514 514 513 512 512 511 510 510 509 507
658 656 654 652 650 648 646 644 642 640 638 636 635 633 632 630 628 625 623 621 620 618 615 612 609 606 603 600 598 596 595 593 592 590 589 587 584 580 578 576 575 573 570 565 561 558 557 556 554 551 548 546 544 542 541 540 539 537 536 535 534 532 530 529 527 525 524 522 521 519 518 516 515 514 513 512 511 510 509 509 509 508 507 506 505 504
654 653 651 649 647 645 643 641 639 638 636 634 632 631 630 628 627 624 622 620 619 616 613 610 608 606 603 600 597 594 591 590 589 589 588 586 582 579 577 575 573 571 569 565 560 555 552 551 550 549 546 544 542 540 539 538 536 535 534 532 530 529 528 526 524 523 521 519 518 516 515 513 512 511 509 509 508 507 506 505 505 505 504 502 501 500
652 650 648 646 644 643 641 639 637 635 633 631 630 629 627 626 624 623 621 619 617 615 612 609 607 605 603 600 597 593 589 587 587 588 587 585 581 577 576 574 571 569 569 566 562 555 549 546 545 545 544 542 540 538 537 536 534 533 531 529 528 526 525 524 522 521 519 517 515 514 512 510 509 507 506 505 504 503 502 501 501 501 500 499 497 496
650 648 646 644 642 640 639 637 634 633 631 629 628 626 625 624 623 621 619 618 616 614 611 609 606 604 602 600 597 593 589 586 585 586 585 583 579 576 574 573 570 567 566 565 563 559 552 545 542 541 541 540 538 536 535 534 532 531 529 528 526 524 523 522 520 518 516 514 512 510 509 507 505 504 502 501 499 498 497 497 497 497 496 495 494 492
648 646 644 642 640 638 636 634 633 631 629 627 626 624 623 622 620 619 617 616 614 612 610 608 605 602 600 598 596 593 589 586 585 584 584 582 578 575 573 571 569 566 564 563 561 559 555 549 543 539 538 537 536 534 533 531 530 529 528 526 524 523 521 519 518 516 514 511 509 507 505 503 501 500 498 497 495 494 493 493 492 492 492 490 489 488
646 645 642 640 638 636 634 632 630 629 627 625 624 623 621 620 618 617 615 614 612 610 609 606 604 601 599 596 593 590 588 585 584 583 582 580 577 574 571 569 567 565 562 560 558 556 553 549 544 540 536 534 533 532 531 530 529 527 526 525 523 521 519 517 515 513 511 509 506 504 502 500 498 496 494 493 491 490 489 488 488 487 487 486 485 484
645 643 640 639 636 634 632 630 629 627 625 624 622 621 619 618 616 615 613 612 610 608 607 605 603 600 598 595 592 589 586 583 582 581 580 579 576 573 570 568 566 564 561 558 556 554 550 546 543 540 537 533 531 530 529 529 528 526 525 524 522 519 517 515 513 511 509 506 504 502 499 497 494 493 491 489 488 487 485 484 484 483 483 482 481 481
643 641 639 637 635 633 630 629 627 625 624 622 620 619 617 616 614 613 611 609 608 606 604 602 600 599 596 594 591 588 585 582 580 579 578 577 574 572 569 566 564 562 560 557 554 551 548 544 541 539 537 534 530 528 527 527 526 525 524 522 520 518 515 513 511 509 507 504 502 499 497 494 492 490 488 486 485 484 482 481 480 479 478 478 477 477
642 639 637 635 634 631 629 627 625 624 622 620 619 617 615 614 612 610 609 607 605 603 601 599 598 596 594 592 590 587 584 582 579 577 576 574 573 570 568 565 563 561 559 555 552 549 547 543 539 537 536 534 531 529 526 525 525 524 522 520 518 515 513 510 509 507 505 503 500 497 494 492 490 488 485 484 482 480 479 478 476 475 474 473 472 472
640 638 636 634 632 630 628 626 624 622 621 619 617 615 614 612 610 608 606 604 602 600 599 597 595 593 591 589 587 585 582 580 577 575 573 572 570 569 566 563 560 558 557 554 551 549 546 543 540 538 535 533 531 530 528 526 524 522 520 518 516 514 511 508 506 505 503 501 498 495 492 490 488 485 484 482 480 478 476 474 473 472 470 469 468 466
639 637 634 633 631 629 627 625 623 621 619 618 616 614 612 610 608 606 604 602 600 598 596 594 592 590 588 586 584 582 579 577 575 573 571 570 569 567 564 561 558 556 554 553 551 549 547 544 542 540 537 534 531 529 528 527 524 522 519 516 513 511 508 506 505 503 501 499 496 493 490 488 486 484 482 480 478 476 474 473 471 469 468 466 464 461
638 635 634 632 630 628 626 624 622 620 618 616 614 612 610 608 606 604 602 600 598 596 594 592 590 588 585 583 581 579 577 575 573 571 569 568 566 564 563 560 557 554 552 551 550 549 547 545 544 542 539 536 533 530 528 526 524 523 520 517 513 509 506 504 503 501 499 497 494 492 489 486 484 482 480 479 477 475 473 471 469 467 466 464 462 459
637 634 632 630 629 627 625 623 621 619 617 615 613 610 609 606 604 602 600 598 596 594 592 590 587 585 583 580 579 576 574 572 570 569 567 565 564 563 561 558 555 553 551 550 549 548 547 545 544 541 539 536 534 531 528 526 524 523 521 518 514 509 505 503 501 499 497 495 493 491 488 486 483 481 479 477 475 473 471 469 467 465 463 461 459 457
636 634 631 629 627 625 623 621 619 618 616 614 612 609 607 605 603 601 599 596 594 592 590 588 585 583 580 577 575 574 572 570 568 566 565 564 562 561 559 556 554 552 551 549 548 547 545 544 542 540 538 536 534 531 528 526 524 522 521 518 514 510 505 502 499 498 497 494 492 489 488 485 483 480 478 476 473 471 469 468 465 464 461 459 457 455
635 633 631 629 626 624 622 620 618 616 614 612 610 608 606 604 602 600 598 595 593 590 588 586 584 581 578 575 572 570 569 567 566 564 563 562 561 559 558 555 554 552 551 549 547 545 543 542 541 539 538 536 534 532 529 526 523 521 519 517 515 512 507 502 499 497 495 493 491 489 487 484 482 479 477 475 473 470 468 466 464 462 460 458 456 454
634 632 629 627 625 623 621 619 617 615 613 611 609 606 604 603 601 599 597 594 592 589 587 584 582 580 577 574 571 568 566 564 564 563 562 561 560 558 556 555 553 551 550 549 546 544 542 540 539 538 537 535 534 532 529 526 523 520 518 516 514 512 509 505 501 498 495 493 490 488 486 484 481 479 476 474 472 470 468 465 463 461 459 457 456 454
633 631 628 626 624 622 619 618 616 614 612 610 607 605 603 601 599 598 595 593 590 588 585 583 581 579 575 573 570 567 564 563 562 561 560 559 558 557 555 554 552 550 549 547 545 543 542 540 538 537 535 534 533 531 529 526 523 520 517 515 513 511 509 505 502 499 497 494 491 488 486 484 481 479 476 474 472 470 468 465 463 461 459 458 456 454
632 630 627 625 623 621 619 617 614 613 610 608 606 604 602 600 598 596 594 592 589 587 584 582 580 578 575 572 569 566 564 562 560 559 559 558 556 555 554 553 551 549 547 545 543 542 540 539 538 536 534 533 532 530 528 526 523 520 517 514 512 510 507 504 502 499 497 494 491 489 486 484 481 479 477 475 473 471 469 466 464 463 461 459 457 455
631 629 626 624 622 620 618 615 614 611 609 607 604 602 600 599 597 594 592 590 588 586 583 581 579 577 574 571 569 566 564 561 560 559 558 556 555 554 553 551 549 548 546 544 542 540 539 537 536 535 534 533 531 529 527 524 523 520 517 514 512 509 507 504 501 499 497 495 492 489 486 484 482 480 478 476 474 472 470 468 466 464 462 460 459 457
630 628 626 623 621 619 616 614 612 610 608 605 603 601 599 597 595 593 591 589 587 585 582 580 578 575 573 570 568 566 564 562 560 559 558 556 554 553 552 550 548 546 544 542 540 539 537 536 535 534 534 532 531 529 526 524 522 520 517 515 513 510 508 504 502 499 497 495 493 490 488 486 484 482 480 478 476 474 472 469 467 465 464 462 460 458
630 627 625 623 620 618 615 613 611 609 607 604 601 599 597 595 594 592 590 588 586 584 581 579 576 574 571 569 567 565 564 562 561 559 558 556 554 553 552 550 548 545 543 541 539 537 536 535 534 534 533 532 531 529 526 524 521 519 517 515 513 511 508 505 503 500 498 496 493 491 489 487 485 484 482 480 478 476 474 472 470 468 466 464 462 460
629 627 624 622 620 617 615 612 610 608 605 603 600 598 595 594 592 590 589 587 585 583 580 578 576 573 571 568 566 564 563 562 561 560 558 556 555 554 552 550 549 546 544 541 539 537 536 535 534 533 533 532 531 529 527 524 521 519 517 515 513 511 509 506 504 502 499 497 495 493 490 489 487 485 483 481 480 478 476 474 473 471 469 466 464 463
628 625 623 621 619 616 614 612 609 607 604 602 599 597 595 592 590 589 587 585 583 581 579 577 575 573 570 568 566 565 564 563 561 560 558 557 555 554 553 551 550 548 546 544 541 539 537 536 534 533 532 531 530 529 527 525 522 519 517 515 513 511 510 508 505 503 501 499 497 495 492 490 489 487 485 484 482 480 479 478 476 474 472 469 468 466